EUTELSAT 174A

Last updated on Tue Sep 22 2026 00:03:11 GMT+0000 (Coordinated Universal Time)

1 28924U 05052A 26264.37365037 .00000008 00000+0 00000+0 0 9997 2 28924 4.4553 75.2814 0006032 104.2202 129.3080 1.00274998 53299
UTC large
Height (km)
Speed (km/s)
/
Latitude / Longitude
Inclination (degrees)
Orbital Period (minutes)
Azimuth
Elevation
Range (km)
Doppler Factor

Next 0 passes for location: London (51.5072 / 0.1276)

No passes found over London.
EUTELSAT 174A